Regional Weather Roundup
Issued by NWS Pendleton, OR

Home | Current Version | Previous Version | Text Only | Print | Product List | Glossary On
Versions: 1 2 3 4 5 6 7 8 9 10 11 12 13 14 15 16 17 18 19 20 21 22 23 24 25 26 27 28 29 30 31 32 33 34 35 36 37 38 39 40 41 42 43 44 45 46 47 48 49 50
000
ASUS46 KPDT 011625
RWRPDT
PENDLETON REGIONAL WEATHER ROUNDUP
NATIONAL WEATHER SERVICE PENDLETON OREGON
900 AM PDT WED OCT 1 2014

NOTE: FAIR INDICATES FEW OR NO CLOUDS BELOW 12,000 FEET WITH NO
SIGNIFICANT WEATHER AND/OR OBSTRUCTIONS TO VISIBILITY.

# INDICATES UNOFFICIAL STATION AND DATA

WAZ520-011710-
EAST SLOPES OF WASHINGTON CASCADES

CITY            SKY/WX      TMP DP  RH  WIND    PRES   REMARKS
#BUMPING DAM    N/A         42  N/A N/A S1      N/A
#CLE ELUM HS    N/A         51  43  74  W5      30.10F
#CLE ELUM 2NW   N/A         51  42  71  W1      N/A
#CLE ELUM LAKE  N/A         47  41  79  CALM    30.11S
#CLIFFDEL 2NW   N/A         42  39  89  N1      N/A
#GLENWOOD       N/A         35  34  96  CALM    30.20R
#MANASTASH CYN  N/A         48  38  68  CALM    30.10S
#NELSON         N/A         47  45  93  CALM    30.16S
#NELSON 3SW     N/A         46  42  86  CALM    30.34R
#NILE           N/A         40  38  92  CALM    29.42F
#RONALD 2NW     N/A         47  41  79  CALM    30.02R
#SNOWDEN        N/A         47  42  83  NW3     N/A
#TEANAWAY 4NE   N/A         38  37  96  CALM    N/A
#TROUT LAKE 1NE N/A         46  43  89  CALM    30.18S
$$

WAZ521-011710-
SIMCOE HIGHLANDS

CITY            SKY/WX      TMP DP  RH  WIND    PRES   REMARKS
#BICKLETON HS   N/A         51  33  50  CALM    30.24S
#CENTERVILLE 4W N/A         51  46  83  W13     29.91S
#CENTERVILLE 1SWN/A         46  43  89  CALM    30.16F
#GOLDENDALE     N/A         39  37  92  E2      N/A
#GOLDENDALE 1NE N/A         44  43  96  CALM    N/A
#GOLDENDALE 1S  N/A         45  42  89  CALM    30.14S
#GOLDENDALE 5WNWN/A         46  44  93  W3      30.16R
#GOODNOE HILLS  N/A         54  48  80  W8      30.11S
#LYLE 6NE       N/A         51  46  83  SW6     30.14S
$$

WAZ026-011710-
KITTITAS VALLEY

CITY            SKY/WX      TMP DP  RH  WIND    PRES   REMARKS
ELLENSBURG AP   SUNNY       54  40  59  MISG    30.14S
#ELLENSBURG CWU N/A         49  39  68  NE1     30.09S
#ELLENSBURG 3NE N/A         52  43  71  N5      30.13S
#ELLENSBURG     N/A         55  44  66  E1      N/A
#KITTITAS 3S    N/A         45  42  89  CALM    30.13R
#THORP 6N       N/A         47  40  76  N10     30.14S
$$

WAZ027-011710-
YAKIMA VALLEY

CITY            SKY/WX      TMP DP  RH  WIND    PRES   REMARKS
SUNNYSIDE AP    SUNNY       48  43  83  CALM    30.16S
YAKIMA AIRPORT  SUNNY       50  40  68  CALM    30.16S
YAKIMA-VAGABOND SUNNY       54  41  61  NW2     30.16S
#COWICHE 1N     N/A         53  40  61  NW3     30.28S
#DONALD 2NE     N/A         68  41  37  CALM    30.47S
#GRANDVIEW      N/A         53  41  64  NW1     30.17R
#MABTON         N/A         53  45  74  CALM    30.16S
#MOXEE 2E       N/A         54  32  43  SE3     30.08F
#NACHES 2SW     N/A         54  42  64  W7      30.15R
#OUTLOOK DOT    N/A         N/A N/A N/A SE1     N/A
#SELAH 8E       N/A         53  38  57  E1      N/A
#TERRACE HTS    N/A         50  42  74  CALM    30.10S
#TOPPENISH      N/A         53  43  69  CALM    30.07R
#WAPATO 4NE     N/A         68  41  37  CALM    30.47S
#WEST VALLEY    N/A         52  43  71  CALM    30.12S
#WHITE SWAN 5E  N/A         47  42  83  CALM    30.16S
#WILEY CITY 3W  N/A         54  47  77  CALM    30.16R
$$

WAZ028-011710-
LOWER COLUMBIA BASIN...WASHINGTON

CITY            SKY/WX      TMP DP  RH  WIND    PRES   REMARKS
HANFORD         MOSUNNY     55  35  47  SW5     30.12R
PASCO           PTCLDY      56  46  69  S6      30.16S
PROSSER AWOS    N/A         54  43  66  S2      30.20R
RICHLAND AWOS   PTCLDY      55  43  64  SW5     30.16R
#BASIN CITY 5SW N/A         54  46  74  CALM    30.15R
#BENTON CITY    N/A         51  43  74  NW1     30.06S
#CONNELL 5N     N/A         48  40  74  CALM    30.14R
#CONNELL 5NW    N/A         47  41  79  CALM    30.10R
#ELTOPIA 6NW    N/A         49  45  86  S2      29.11S
#KENNEWICK 3S   N/A         53  46  77  S8      30.14S
#PASCO-BROADMOORN/A         61  49  65  CALM    30.04F
#PATERSON       N/A         53  47  80  CALM    30.16R
#PROSSER        N/A         50  39  66  CALM    30.15R
#SAGEMOOR 2W    N/A         53  48  83  CALM    30.00R
#TOUCHET 2S     N/A         57  45  64  SW15    30.14R
#WEST PASCO     N/A         55  48  77  CALM    30.19S
$$

WAZ029-011710-
FOOTHILLS OF THE BLUES...WASHINGTON

CITY            SKY/WX      TMP DP  RH  WIND    PRES   REMARKS
WALLA WALLA AP  PTCLDY      56  42  59  S12     30.19R
#DAYTON SCHOOL  N/A         54  39  57  S6      30.15S
#LOWDEN 2SE     N/A         58  47  67  S1      30.14S
#PLEASANT VIEW 1N/A         52  44  74  S15     30.17S
#PRESCOTT       N/A         55  45  69  SW2     30.16S
#SUDBURY        N/A         60  N/A N/A CALM    N/A
#WHITMAN COLLEGEN/A         56  44  64  S5      30.22R
#WAITSBURG 8N   N/A         53  34  48  S13     30.12S
#WALLA WALLA 5E N/A         56  44  64  W7      N/A
#WALLA WALLA U  N/A         57  46  67  CALM    30.16S
#WHITMAN MISSIONN/A         56  47  72  S3      30.17S
$$

WAZ030-011710-
BLUE MOUNTAINS...WASHINGTON

CITY            SKY/WX      TMP DP  RH  WIND    PRES   REMARKS
$$

ORZ009-041-WAZ024-011710-
COLUMBIA RIVER GORGE

CITY            SKY/WX      TMP DP  RH  WIND    PRES   REMARKS
HOOD RIVER AP   SUNNY       55  45  69  S3      30.20S
THE DALLES AP   SUNNY       58  46  64  NW9     30.19S
#ARLINGTON AIRPON/A         54  47  77  W9      29.98S
#ARLINGTON HS   N/A         56  46  69  NW6     30.09S
#LYLE           N/A         57  48  72  W5      30.19S
#MARYHILL 2W    N/A         57  49  75  E3      N/A
#MOSIER 1S      N/A         56  36  47  CALM    N/A
#MURDOCK        N/A         58  51  77  W7      30.20S
#RUFUS DOT      N/A         56  44  64  SW3     N/A

$$

ORZ510-011710-
NORTH CENTRAL OREGON

CITY            SKY/WX      TMP DP  RH  WIND    PRES   REMARKS
#CHENOWITH 1W   N/A         49  44  83  NW15    N/A    WCI 43
#COW CYN RST AREN/A         46  39  76  SW5     N/A
#DUFUR 9E       N/A         50  41  71  W9      30.22S
#GRASS VALLEY   N/A         50  41  71  S2      N/A
#GRASS VALLEY 1SN/A         44  40  86  SW2     30.22F
#KENT DOT       N/A         48  37  65  S6      N/A
#MAUPIN SCHOOL  N/A         45  39  79  CALM    29.10S
#MORO SCHOOL    N/A         53  46  77  SW6     30.19S
#SHANIKO 5WSW   N/A         44  36  73  S7      N/A
#SHANIKO 4NW    N/A         45  38  76  S2      30.20R
#TYGH VALLEY 2NEN/A         45  39  79  CALM    30.21R
#WAPANITIA AIRPON/A         50  42  74  W1      30.20S
#WASCO AIRPORT  N/A         53  43  69  W8      N/A
#WASCO 5NE      N/A         52  43  71  W7      30.16S
$$

ORZ511-011710-
CENTRAL OREGON

CITY            SKY/WX      TMP DP  RH  WIND    PRES   REMARKS
BEND AIRPORT    SUNNY       45  36  70  SW5     30.24R
MADRAS AIRPORT  PTCLDY      45  39  79  S7      30.24R
REDMOND AIRPORT SUNNY       45  35  68  SE5     30.22R
#BEND 6E        N/A         46  35  65  CALM    30.18F
#BEND 1SW       N/A         39  36  89  SW2     N/A
#BEND-KIM LN    N/A         40  36  85  SW6     30.19R
#CROOKED RVR RANN/A         46  38  73  S1      30.20S
#CULVER         N/A         46  39  76  CALM    30.19R
#CULVER 1E      N/A         44  39  82  CALM    30.23S
#LAKE BILLY CHINN/A         50  30  46  CALM    30.25F
#POWELL BUTTE 3EN/A         37  35  92  E1      N/A
#POWELL BUTTE   N/A         48  41  77  N1      29.84R
#PRINEVILLE 3N  N/A         44  39  82  CALM    30.18R
#WARM SPRINGS   N/A         43  38  82  CALM    30.20R


ORZ509-011710-
EAST SLOPES OF OREGON CASCADES

CITY            SKY/WX      TMP DP  RH  WIND    PRES   REMARKS
#BLUE BOX PASS  N/A         41  -8  12  NW3     N/A
#CAMP SHERMAN   N/A         30  28  92  CALM    30.31S
#LA PINE DOT    N/A         34  32  92  W1      N/A
#LA PINE 4NW    N/A         29  26  88  CALM    30.31R
#LAVA BUTTE DOT N/A         36  35  96  SE1     N/A
#SISTERS AIRPOR N/A         42  38  86  CALM    29.91S
#SISTERS ODOT   N/A         45  N/A N/A CALM    N/A
#SISTERS 1NW    N/A         33  30  89  N5      N/A
#SISTERS 3N     N/A         38  34  85  CALM    N/A
#SUNRIVER       N/A         36  35  96  S1      30.13R
#SUNRIVER AP    N/A         33  32  96  CALM    30.20S
#SUTTLE LK DOT  N/A         36  36  100 W12     N/A    WCI 28
#TUMALO 3W      N/A         48  36  63  CALM    30.09R
#WANOGA BUTTE D N/A         38  33  82  W5      N/A

$$

ORZ044-011710-
LOWER COLUMBIA BASIN...OREGON

CITY            SKY/WX      TMP DP  RH  WIND    PRES   REMARKS
HERMISTON       SUNNY       58  42  55  W10     30.18R
#BOARDMAN SCHOOLN/A         57  45  64  W2      30.16S
#BOARDMAN 3W    N/A         58  47  67  SW8     29.91S
#BOARDMAN 8SW   N/A         56  45  66  W8      30.17R
#ECHO 8SW       N/A         58  41  53  W7      30.14S
#IONE SCHOOL    N/A         56  41  57  SW5     30.17S
#IRRIGON 4NW    N/A         54  48  80  S1      N/A
#UMATILLA SCHOOLN/A         52  47  83  CALM    30.16F
#UMATILLA       N/A         54  43  66  CALM    30.16R
$$

ORZ507-011710-
NORTHERN FOOTHILLS OF THE BLUES

CITY            SKY/WX      TMP DP  RH  WIND    PRES   REMARKS
PENDLETON AIRPT PTCLDY      52  40  63  SE5     30.18S
#ADAMS 3WNW     N/A         52  43  71  S2      30.16S
#ATHENA         N/A         53  43  69  SW1     30.19R
#CAYUSE         N/A         50  42  74  E1      30.17R
#HELIX SCHOOL   N/A         51  43  74  S5      30.16S
#HELIX 3N       N/A         51  43  74  SW13    30.14R
#HOLDMAN 5SE    N/A         53  43  69  SW7     30.18R
#HOLDMAN 6E     N/A         51  42  71  N7      29.98S
#M-F GROVE ELEM N/A         56  41  57  SW7     30.16S
#M-FREEWATER 5SEN/A         55  43  64  S5      30.17S
#PENDLETON DNTN N/A         51  41  68  CALM    29.00S
#PDT AQUATIC CTRN/A         54  41  61  CALM    30.17
#PENDLETON 5NE  N/A         51  45  80  CALM    30.14S
#PDT SUNRIDGE   N/A         55  44  66  S1      30.19S
#PENDLETON 7NW  N/A         55  43  64  W6      27.05R
#PILOT ROCK     N/A         53  39  59  S2      30.19S
#TUTUILLA       N/A         51  42  71  CALM    30.19R
#UMAPINE 2E     N/A         57  46  67  SW6     30.15S

$$

ORZ508-011710-
SOUTHERN FOOTHILLS OF THE BLUES

CITY            SKY/WX      TMP DP  RH  WIND    PRES   REMARKS
LEXINGTON       PTCLDY      57  39  51  SW13    30.21S
#AJAX           N/A         49  34  56  SW7     30.11S
#CONDON SCHOOL  N/A         47  42  83  CALM    30.15R
#CONDON 5W      N/A         45  38  76  SW7     30.16S
#FOSSIL SCHOOL  N/A         43  39  86  CALM    30.16S
#HEPPNER EOC    N/A         52  40  63  W5      30.14S
#HEPPNER 4NE    N/A         50  39  66  W6      30.17S
#LEXINGTON 2SE  N/A         57  41  55  SW6     30.17S
#MIKKALO        N/A         54  39  57  W10     30.17R
#RUGGS 5NE      N/A         51  37  59  SW5     30.33S
#RUGGS 2SW      N/A         49  38  66  W6      30.20R

$$

ORZ502-503-011710-
BLUE MOUNTAINS

CITY            SKY/WX      TMP DP  RH  WIND    PRES   REMARKS
MEACHAM         CLOUDY      45  41  86  MISG    30.18S
#BATTLE MTN DOT N/A         39  40  100 S6      N/A
#HARDMAN 10S    N/A         42  37  82  CALM    30.22R
#HEPPNER 15SE   N/A         44  39  82  CALM    30.10R
#LADD CYN SMT   N/A         51  32  48  NE3     N/A
#LADD CREEK ODOTN/A         39  38  96  CALM    N/A
#LONG CREEK HS  N/A         47  44  89  CALM    30.16S
#N POWDER DOT   N/A         46  41  83  S3      N/A
#PIKES PEAK     N/A         43  39  86  S17     27.99S WCI 35
#TROY SCHOOL    N/A         46  39  76  W1      30.03S
#UKIAH          N/A         38  36  92  CALM    30.24S
#WESTON 4E      N/A         45  40  82  SE5     30.12R
$$

ORZ505-011710-
JOHN DAY BASIN

CITY            SKY/WX      TMP DP  RH  WIND    PRES   REMARKS
JOHN DAY        SUNNY       49  40  71  CALM    30.21S
#JOHN DAY KJDY  N/A         50  44  80  E1      30.34S
#DAYVILLE SCHOOLN/A         50  38  63  CALM    30.17S
#MONUMENT HS    N/A         51  41  68  CALM    30.20S
#MT. VERNON 5SE N/A         47  39  74  CALM    30.16S
#WINLOCK        N/A         54  41  61  NW2     30.27R
$$

ORZ506-011710-
OCHOCO AND JOHN DAY HIGHLANDS

CITY            SKY/WX      TMP DP  RH  WIND    PRES   REMARKS
#BUCK CREEK DOT N/A         48  43  83  CALM    N/A
#HORSE RIDGE DO N/A         41  33  73  CALM    N/A
#KEYES SMT DOT  N/A         46  37  71  W5      N/A
#PAULINA SCHOOL N/A         38  34  85  CALM    30.20R
#PINE MTN OBS   N/A         37  33  85  SE8     N/A
#PRAIRIE CITY   N/A         47  43  86  CALM    30.26F
#SENECA         N/A         44  N/A N/A W1      N/A
#SENECA 9NW     N/A         43  37  79  CALM    30.16S
$$

ORZ049-011710-
GRANDE RONDE VALLEY

CITY            SKY/WX      TMP DP  RH  WIND    PRES   REMARKS
LA GRANDE       SUNNY       52  37  56  SW3     30.19R
#COVE           N/A         49  43  80  CALM    30.10R
#COVE SCHOOL    N/A         50  42  74  CALM    30.16S
#COVE 6NW       N/A         42  40  93  CALM    30.24R
#ELGIN 3N       N/A         46  45  96  CALM    29.91R
#ELGIN 1E       N/A         38  34  85  CALM    N/A
#IMBLER SCHOOL  N/A         45  40  82  E3      30.15R
#LADD CYN DOT   N/A         48  41  77  CALM    N/A
#UNION 1S       N/A         50  44  80  CALM    30.10R
$$

ORZ050-011710-
WALLOWA COUNTY

CITY            SKY/WX      TMP DP  RH  WIND    PRES   REMARKS
JOSEPH AIRPORT  SUNNY       41  37  86  CALM    30.20R
#ENTERPRISE AP  N/A         39  35  85  E3      30.11S
#ENTERPRISE HS  N/A         41  39  93  CALM    30.19S
#IMNAHA SCHOOL  N/A         52  39  61  CALM    30.11F
#IMNAHA 10S     N/A         47  40  76  S3      30.16S
#JOSEPH 3N      N/A         36  35  96  CALM    30.19R
#JOSEPH 3W      N/A         44  37  76  E2      30.01R
#LOSTINE        N/A         43  39  86  CALM    30.00R
#MT HOWARD 8000 N/A         31  29  92  NW1     30.17R
#PROMISE 1S     N/A         46  37  71  CALM    30.27S
#SHEEP RDG 7000 N/A         33  29  85  CALM    30.24R
#WALLOWA SCHOOL N/A         39  37  92  CALM    31.15R



$$



USA.gov is the U.S. government's official web portal to all federal, state and local government web resources and services.